Time,TemperatureF,DewpointF,PressureIn,WindDirection,WindDirectionDegrees,WindSpeedMPH,WindSpeedGustMPH,Humidity,HourlyPrecipIn,Conditions,Clouds,dailyrainin,SoftwareType,DateUTC
2013-02-09 00:02:00,25.0,24.0,-100.00,WNW,295,0.0,0.0,94,0.00,,,-99.99,,2013-02-09 05:02:00,
2013-02-09 00:12:00,25.0,24.0,-100.00,NW,310,0.0,0.0,94,0.00,,,-99.99,,2013-02-09 05:12:00,
2013-02-09 00:22:00,25.0,24.0,-100.00,WNW,300,0.0,0.0,94,0.00,,,-99.99,,2013-02-09 05:22:00,
2013-02-09 00:32:00,25.0,24.0,-100.00,NW,310,0.0,0.0,93,0.00,,,-99.99,,2013-02-09 05:32:00,
2013-02-09 00:42:00,25.0,24.0,-100.00,NW,305,0.0,0.0,93,0.00,,,-99.99,,2013-02-09 05:42:00,
2013-02-09 00:52:00,25.0,24.0,-100.00,WNW,300,0.0,0.0,93,0.00,,,-99.99,,2013-02-09 05:52:00,
2013-02-09 01:02:00,25.0,24.0,-100.00,West,275,0.0,0.0,93,0.00,,,-99.99,,2013-02-09 06:02:00,
2013-02-09 01:11:00,25.0,24.0,-100.00,West,275,0.0,0.0,93,0.00,,,-99.99,,2013-02-09 06:11:00,
2013-02-09 01:21:00,25.0,24.0,-100.00,WNW,295,0.0,0.0,93,0.00,,,-99.99,,2013-02-09 06:21:00,
2013-02-09 01:32:00,25.0,23.0,-100.00,West,260,0.0,0.0,93,0.00,,,-99.99,,2013-02-09 06:32:00,
2013-02-09 01:42:00,25.0,23.0,-100.00,NW,305,0.0,0.0,93,0.00,,,-99.99,,2013-02-09 06:42:00,
2013-02-09 01:51:00,25.0,23.0,-100.00,WNW,290,0.0,0.0,93,0.00,,,-99.99,,2013-02-09 06:51:00,
2013-02-09 02:01:00,25.0,23.0,-100.00,WNW,290,0.0,0.0,93,0.00,,,-99.99,,2013-02-09 07:01:00,
2013-02-09 02:11:00,25.0,23.0,-100.00,WNW,290,0.0,0.0,93,0.00,,,-99.99,,2013-02-09 07:11:00,
2013-02-09 02:21:00,25.0,23.0,-100.00,NW,325,0.0,0.0,92,0.00,,,-99.99,,2013-02-09 07:21:00,
2013-02-09 02:32:00,25.0,22.0,-100.00,WNW,295,0.0,0.0,91,0.00,,,-99.99,,2013-02-09 07:32:00,
2013-02-09 02:42:00,25.0,22.0,-100.00,NW,310,0.0,0.0,90,0.00,,,-99.99,,2013-02-09 07:42:00,
2013-02-09 02:52:00,25.0,22.0,-100.00,WNW,285,0.0,0.0,90,0.00,,,-99.99,,2013-02-09 07:52:00,
2013-02-09 03:01:00,25.0,22.0,-100.00,WNW,285,0.0,0.0,90,0.00,,,-99.99,,2013-02-09 08:01:00,
2013-02-09 03:11:00,25.0,22.0,-100.00,NW,320,0.0,0.0,90,0.00,,,-99.99,,2013-02-09 08:11:00,
2013-02-09 03:21:00,25.0,22.0,-100.00,WNW,290,0.0,0.0,91,0.00,,,-99.99,,2013-02-09 08:21:00,
2013-02-09 03:32:00,24.0,22.0,-100.00,WNW,300,0.0,0.0,91,0.00,,,-99.99,,2013-02-09 08:32:00,
2013-02-09 03:42:00,24.0,22.0,-100.00,West,280,0.0,0.0,91,0.00,,,-99.99,,2013-02-09 08:42:00,
2013-02-09 03:52:00,24.0,22.0,-100.00,NW,305,0.0,0.0,91,0.00,,,-99.99,,2013-02-09 08:52:00,
2013-02-09 04:03:00,24.0,22.0,-100.00,NW,305,0.0,0.0,91,0.00,,,-99.99,,2013-02-09 09:03:00,
2013-02-09 04:11:00,24.0,22.0,-100.00,WNW,285,0.0,0.0,91,0.00,,,-99.99,,2013-02-09 09:11:00,
2013-02-09 04:21:00,24.0,22.0,-100.00,NW,320,0.0,0.0,91,0.00,,,-99.99,,2013-02-09 09:21:00,
2013-02-09 04:32:00,24.0,22.0,-100.00,NW,305,0.0,0.0,91,0.00,,,-99.99,,2013-02-09 09:32:00,
2013-02-09 04:42:00,24.0,22.0,-100.00,WNW,285,0.0,0.0,91,0.00,,,-99.99,,2013-02-09 09:42:00,
2013-02-09 04:51:00,24.0,22.0,-100.00,WNW,295,0.0,0.0,92,0.00,,,-99.99,,2013-02-09 09:51:00,
2013-02-09 05:01:00,24.0,22.0,-100.00,WNW,300,0.0,0.0,92,0.00,,,-99.99,,2013-02-09 10:01:00,
2013-02-09 05:11:00,24.0,22.0,-100.00,WNW,290,0.0,0.0,92,0.00,,,-99.99,,2013-02-09 10:11:00,
2013-02-09 05:21:00,24.0,22.0,-100.00,WNW,300,0.0,0.0,92,0.00,,,-99.99,,2013-02-09 10:21:00,
2013-02-09 05:32:00,24.0,22.0,-100.00,NW,320,0.0,0.0,92,0.00,,,-99.99,,2013-02-09 10:32:00,
2013-02-09 05:42:00,24.0,22.0,-100.00,WNW,295,0.0,0.0,93,0.00,,,-99.99,,2013-02-09 10:42:00,
2013-02-09 05:51:00,24.0,22.0,-100.00,NW,305,0.0,0.0,93,0.00,,,-99.99,,2013-02-09 10:51:00,
2013-02-09 06:01:00,24.0,22.0,-100.00,West,275,0.0,0.0,93,0.00,,,-99.99,,2013-02-09 11:01:00,
2013-02-09 06:11:00,24.0,22.0,-100.00,WNW,300,0.0,0.0,93,0.00,,,-99.99,,2013-02-09 11:11:00,
2013-02-09 06:22:00,24.0,22.0,-100.00,NW,305,0.0,0.0,93,0.00,,,-99.99,,2013-02-09 11:22:00,
2013-02-09 06:32:00,24.0,22.0,-100.00,West,280,0.0,0.0,93,0.00,,,-99.99,,2013-02-09 11:32:00,
2013-02-09 06:41:00,24.0,22.0,-100.00,NW,320,0.0,0.0,93,0.00,,,-99.99,,2013-02-09 11:41:00,
2013-02-09 06:52:00,24.0,22.0,-100.00,NNW,330,0.0,0.0,93,0.00,,,-99.99,,2013-02-09 11:52:00,
2013-02-09 07:02:00,24.0,22.0,-100.00,NW,325,0.0,0.0,94,0.00,,,-99.99,,2013-02-09 12:02:00,
2013-02-09 07:11:00,24.0,22.0,-100.00,West,275,0.0,0.0,94,0.00,,,-99.99,,2013-02-09 12:11:00,
2013-02-09 07:21:00,24.0,22.0,-100.00,NW,305,0.0,0.0,94,0.00,,,-99.99,,2013-02-09 12:21:00,
2013-02-09 07:32:00,23.0,22.0,-100.00,WNW,290,0.0,0.0,94,0.00,,,-99.99,,2013-02-09 12:32:00,
2013-02-09 07:42:00,23.0,22.0,-100.00,NW,325,0.0,0.0,94,0.00,,,-99.99,,2013-02-09 12:42:00,
2013-02-09 07:52:00,23.0,22.0,-100.00,NW,325,0.0,0.0,94,0.00,,,-99.99,,2013-02-09 12:52:00,
2013-02-09 08:02:00,23.0,22.0,-100.00,NNW,335,0.0,0.0,94,0.00,,,-99.99,,2013-02-09 13:02:00,
2013-02-09 08:11:00,23.0,22.0,-100.00,NNW,335,0.0,0.0,94,0.00,,,-99.99,,2013-02-09 13:11:00,
2013-02-09 08:22:00,23.0,22.0,-100.00,North,350,0.0,0.0,93,0.00,,,-99.99,,2013-02-09 13:22:00,
2013-02-09 08:32:00,24.0,22.0,-100.00,NW,325,0.0,0.0,92,0.00,,,-99.99,,2013-02-09 13:32:00,
2013-02-09 08:42:00,24.0,22.0,-100.00,North,0,0.0,0.0,92,0.00,,,-99.99,,2013-02-09 13:42:00,
2013-02-09 08:52:00,24.0,22.0,-100.00,North,0,0.0,0.0,92,0.00,,,-99.99,,2013-02-09 13:52:00,
2013-02-09 09:01:00,24.0,22.0,-100.00,North,355,0.0,0.0,91,0.00,,,-99.99,,2013-02-09 14:01:00,
2013-02-09 09:11:00,24.0,22.0,-100.00,NW,315,0.0,0.0,91,0.00,,,-99.99,,2013-02-09 14:11:00,
2013-02-09 09:21:00,24.0,22.0,-100.00,NW,320,0.0,0.0,91,0.00,,,-99.99,,2013-02-09 14:21:00,
2013-02-09 09:32:00,24.0,22.0,-100.00,NW,305,0.0,0.0,91,0.00,,,-99.99,,2013-02-09 14:32:00,
2013-02-09 09:42:00,24.0,22.0,-100.00,NW,325,0.0,0.0,90,0.00,,,-99.99,,2013-02-09 14:42:00,
2013-02-09 09:52:00,24.0,22.0,-100.00,North,0,0.0,0.0,90,0.00,,,-99.99,,2013-02-09 14:52:00,
2013-02-09 10:02:00,24.0,22.0,-100.00,NW,315,0.0,0.0,90,0.00,,,-99.99,,2013-02-09 15:02:00,
2013-02-09 10:11:00,25.0,22.0,-100.00,NW,325,0.0,0.0,89,0.00,,,-99.99,,2013-02-09 15:11:00,
2013-02-09 10:21:00,24.0,22.0,-100.00,North,355,0.0,0.0,89,0.00,,,-99.99,,2013-02-09 15:21:00,
2013-02-09 10:32:00,24.0,21.0,-100.00,NNW,335,0.0,0.0,87,0.00,,,-99.99,,2013-02-09 15:32:00,
2013-02-09 10:42:00,25.0,22.0,-100.00,NNW,330,0.0,0.0,85,0.00,,,-99.99,,2013-02-09 15:42:00,
2013-02-09 10:51:00,26.0,22.0,-100.00,NNW,335,0.0,0.0,83,0.00,,,-99.99,,2013-02-09 15:51:00,
2013-02-09 11:01:00,27.0,22.0,-100.00,NNW,330,0.0,0.0,80,0.00,,,-99.99,,2013-02-09 16:01:00,
2013-02-09 11:11:00,27.0,22.0,-100.00,NNE,30,0.0,0.0,79,0.00,,,-99.99,,2013-02-09 16:11:00,
2013-02-09 11:22:00,29.0,22.0,-100.00,North,355,0.0,0.0,76,0.00,,,-99.99,,2013-02-09 16:22:00,
2013-02-09 11:32:00,28.0,21.0,-100.00,NNE,15,0.0,0.0,74,0.00,,,-99.99,,2013-02-09 16:32:00,
2013-02-09 11:42:00,28.0,21.0,-100.00,NE,50,0.0,0.0,74,0.00,,,-99.99,,2013-02-09 16:42:00,
2013-02-09 11:52:00,29.0,21.0,-100.00,North,0,0.0,0.0,72,0.00,,,-99.99,,2013-02-09 16:52:00,
2013-02-09 12:01:00,29.0,21.0,-100.00,WSW,255,0.0,0.0,71,0.00,,,-99.99,,2013-02-09 17:01:00,
2013-02-09 12:11:00,30.0,22.0,-100.00,NNE,30,0.0,0.0,71,0.00,,,-99.99,,2013-02-09 17:11:00,
2013-02-09 12:21:00,33.0,23.0,-100.00,SSE,160,0.0,0.0,68,0.00,,,-99.99,,2013-02-09 17:21:00,
2013-02-09 12:32:00,34.0,23.0,-100.00,North,0,0.0,0.0,64,0.00,,,-99.99,,2013-02-09 17:32:00,
2013-02-09 12:42:00,33.0,21.0,-100.00,NW,305,0.0,0.0,61,0.00,,,-99.99,,2013-02-09 17:42:00,
2013-02-09 12:52:00,33.0,20.0,-100.00,West,275,0.0,0.0,59,0.00,,,-99.99,,2013-02-09 17:52:00,
2013-02-09 13:02:00,34.0,21.0,-100.00,South,175,0.0,0.0,58,0.00,,,-99.99,,2013-02-09 18:02:00,
2013-02-09 13:12:00,35.0,21.0,-100.00,SE,125,0.0,0.0,57,0.00,,,-99.99,,2013-02-09 18:12:00,
2013-02-09 13:23:00,35.0,20.0,-100.00,South,170,0.0,0.0,54,0.00,,,-99.99,,2013-02-09 18:23:00,
2013-02-09 13:32:00,35.0,20.0,-100.00,South,170,0.0,0.0,54,0.00,,,-99.99,,2013-02-09 18:32:00,
2013-02-09 13:42:00,35.0,19.0,-100.00,SSW,210,0.0,0.0,53,0.00,,,-99.99,,2013-02-09 18:42:00,
2013-02-09 13:52:00,34.0,19.0,-100.00,South,180,0.0,0.0,52,0.00,,,-99.99,,2013-02-09 18:52:00,
2013-02-09 14:02:00,35.0,19.0,-100.00,East,85,0.0,0.0,52,0.00,,,-99.99,,2013-02-09 19:02:00,
2013-02-09 14:11:00,35.0,19.0,-100.00,SE,145,0.0,0.0,51,0.00,,,-99.99,,2013-02-09 19:11:00,
2013-02-09 14:22:00,35.0,19.0,-100.00,NW,305,0.0,0.0,51,0.00,,,-99.99,,2013-02-09 19:22:00,
2013-02-09 14:32:00,35.0,19.0,-100.00,NW,305,0.0,0.0,51,0.00,,,-99.99,,2013-02-09 19:32:00,
2013-02-09 14:42:00,36.0,19.0,-100.00,West,280,0.0,0.0,49,0.00,,,-99.99,,2013-02-09 19:42:00,
2013-02-09 14:52:00,35.0,19.0,-100.00,NNE,15,0.0,0.0,52,0.00,,,-99.99,,2013-02-09 19:52:00,
2013-02-09 15:02:00,34.0,19.0,-100.00,NNE,20,0.0,0.0,53,0.00,,,-99.99,,2013-02-09 20:02:00,
2013-02-09 15:11:00,36.0,19.0,-100.00,WSW,250,0.0,0.0,51,0.00,,,-99.99,,2013-02-09 20:11:00,
2013-02-09 15:21:00,36.0,20.0,-100.00,NNW,340,0.0,0.0,50,0.00,,,-99.99,,2013-02-09 20:21:00,
2013-02-09 15:32:00,35.0,18.0,-100.00,East,80,0.0,0.0,50,0.00,,,-99.99,,2013-02-09 20:32:00,
2013-02-09 15:42:00,37.0,19.0,-100.00,West,280,0.0,0.0,49,0.00,,,-99.99,,2013-02-09 20:42:00,
2013-02-09 15:52:00,38.0,19.0,-100.00,West,260,0.0,0.0,47,0.00,,,-99.99,,2013-02-09 20:52:00,
2013-02-09 16:02:00,37.0,19.0,-100.00,West,260,0.0,0.0,46,0.00,,,-99.99,,2013-02-09 21:02:00,
2013-02-09 16:11:00,37.0,18.0,-100.00,East,80,0.0,0.0,45,0.00,,,-99.99,,2013-02-09 21:11:00,
2013-02-09 16:21:00,35.0,17.0,-100.00,ENE,60,0.0,0.0,46,0.00,,,-99.99,,2013-02-09 21:21:00,
2013-02-09 16:32:00,35.0,17.0,-100.00,South,185,0.0,0.0,48,0.00,,,-99.99,,2013-02-09 21:32:00,
2013-02-09 16:42:00,36.0,18.0,-100.00,NNW,340,0.0,0.0,48,0.00,,,-99.99,,2013-02-09 21:42:00,
2013-02-09 16:52:00,35.0,18.0,-100.00,NE,50,0.0,0.0,49,0.00,,,-99.99,,2013-02-09 21:52:00,
2013-02-09 17:01:00,33.0,18.0,-100.00,NE,50,0.0,0.0,51,0.00,,,-99.99,,2013-02-09 22:01:00,
2013-02-09 17:11:00,32.0,17.0,-100.00,ENE,60,0.0,0.0,53,0.00,,,-99.99,,2013-02-09 22:11:00,
2013-02-09 17:21:00,31.0,17.0,-100.00,NNE,30,0.0,0.0,56,0.00,,,-99.99,,2013-02-09 22:21:00,
2013-02-09 17:32:00,30.0,18.0,-100.00,NE,55,0.0,0.0,59,0.00,,,-99.99,,2013-02-09 22:32:00,
2013-02-09 17:42:00,29.0,18.0,-100.00,North,0,0.0,0.0,61,0.00,,,-99.99,,2013-02-09 22:42:00,
2013-02-09 17:52:00,29.0,18.0,-100.00,NE,55,0.0,0.0,64,0.00,,,-99.99,,2013-02-09 22:52:00,
2013-02-09 18:02:00,28.0,19.0,-100.00,NNW,345,0.0,0.0,66,0.00,,,-99.99,,2013-02-09 23:02:00,
2013-02-09 18:11:00,28.0,19.0,-100.00,North,0,0.0,0.0,68,0.00,,,-99.99,,2013-02-09 23:11:00,
2013-02-09 18:21:00,27.0,19.0,-100.00,North,10,0.0,0.0,70,0.00,,,-99.99,,2013-02-09 23:21:00,
2013-02-09 18:32:00,26.0,19.0,-100.00,North,10,0.0,0.0,71,0.00,,,-99.99,,2013-02-09 23:32:00,
2013-02-09 18:42:00,26.0,19.0,-100.00,North,10,0.0,0.0,72,0.00,,,-99.99,,2013-02-09 23:42:00,
2013-02-09 18:52:00,26.0,19.0,-100.00,East,95,0.0,0.0,74,0.00,,,-99.99,,2013-02-09 23:52:00,
2013-02-09 19:02:00,26.0,20.0,-100.00,SSW,210,0.0,0.0,75,0.00,,,-99.99,,2013-02-10 00:02:00,
2013-02-09 19:12:00,26.0,20.0,-100.00,SSW,200,0.0,0.0,77,0.00,,,-99.99,,2013-02-10 00:12:00,
2013-02-09 19:22:00,26.0,20.0,-100.00,SSW,200,0.0,0.0,78,0.00,,,-99.99,,2013-02-10 00:22:00,
2013-02-09 19:32:00,25.0,20.0,-100.00,South,185,0.0,0.0,79,0.00,,,-99.99,,2013-02-10 00:32:00,
2013-02-09 19:42:00,25.0,20.0,-100.00,WNW,290,0.0,0.0,80,0.00,,,-99.99,,2013-02-10 00:42:00,
2013-02-09 19:51:00,25.0,20.0,-100.00,SSW,200,0.0,0.0,81,0.00,,,-99.99,,2013-02-10 00:51:00,
2013-02-09 20:01:00,25.0,20.0,-100.00,South,185,0.0,0.0,82,0.00,,,-99.99,,2013-02-10 01:01:00,
2013-02-09 20:12:00,24.0,20.0,-100.00,West,265,0.0,0.0,82,0.00,,,-99.99,,2013-02-10 01:12:00,
2013-02-09 20:21:00,24.0,20.0,-100.00,SE,140,0.0,0.0,83,0.00,,,-99.99,,2013-02-10 01:21:00,
2013-02-09 20:32:00,24.0,20.0,-100.00,SSW,210,0.0,0.0,84,0.00,,,-99.99,,2013-02-10 01:32:00,
2013-02-09 20:42:00,23.0,20.0,-100.00,South,190,0.0,0.0,84,0.00,,,-99.99,,2013-02-10 01:42:00,
2013-02-09 20:51:00,23.0,20.0,-100.00,SSW,195,0.0,0.0,85,0.00,,,-99.99,,2013-02-10 01:51:00,
2013-02-09 21:01:00,23.0,19.0,-100.00,SSE,155,0.0,0.0,85,0.00,,,-99.99,,2013-02-10 02:01:00,
2013-02-09 21:11:00,22.0,19.0,-100.00,ESE,120,0.0,0.0,86,0.00,,,-99.99,,2013-02-10 02:11:00,
2013-02-09 21:22:00,22.0,19.0,-100.00,SE,135,0.0,0.0,87,0.00,,,-99.99,,2013-02-10 02:22:00,
2013-02-09 21:32:00,21.0,18.0,-100.00,SE,135,0.0,0.0,87,0.00,,,-99.99,,2013-02-10 02:32:00,
2013-02-09 21:42:00,21.0,18.0,-100.00,SE,135,0.0,0.0,87,0.00,,,-99.99,,2013-02-10 02:42:00,
2013-02-09 21:52:00,22.0,19.0,-100.00,SSE,165,0.0,0.0,88,0.00,,,-99.99,,2013-02-10 02:52:00,
2013-02-09 22:02:00,22.0,19.0,-100.00,SSE,160,0.0,0.0,89,0.00,,,-99.99,,2013-02-10 03:02:00,
2013-02-09 22:11:00,22.0,19.0,-100.00,South,175,0.0,0.0,90,0.00,,,-99.99,,2013-02-10 03:11:00,
2013-02-09 22:22:00,21.0,19.0,-100.00,South,190,0.0,0.0,90,0.00,,,-99.99,,2013-02-10 03:22:00,
2013-02-09 22:32:00,21.0,19.0,-100.00,SE,145,0.0,0.0,91,0.00,,,-99.99,,2013-02-10 03:32:00,
2013-02-09 22:42:00,21.0,19.0,-100.00,South,170,0.0,0.0,91,0.00,,,-99.99,,2013-02-10 03:42:00,
2013-02-09 22:51:00,21.0,19.0,-100.00,SSE,165,0.0,0.0,91,0.00,,,-99.99,,2013-02-10 03:51:00,
2013-02-09 23:01:00,21.0,19.0,-100.00,South,180,0.0,0.0,92,0.00,,,-99.99,,2013-02-10 04:01:00,
2013-02-09 23:11:00,21.0,20.0,-100.00,SSE,165,0.0,0.0,92,0.00,,,-99.99,,2013-02-10 04:11:00,
2013-02-09 23:22:00,22.0,20.0,-100.00,SE,140,0.0,0.0,93,0.00,,,-99.99,,2013-02-10 04:22:00,
2013-02-09 23:32:00,22.0,20.0,-100.00,SE,145,0.0,0.0,93,0.00,,,-99.99,,2013-02-10 04:32:00,
2013-02-09 23:42:00,22.0,20.0,-100.00,SE,145,0.0,0.0,93,0.00,,,-99.99,,2013-02-10 04:42:00,
2013-02-09 23:52:00,22.0,20.0,-100.00,ESE,115,0.0,0.0,93,0.00,,,-99.99,,2013-02-10 04:52:00,